Appleton, MN

8:06 AM CST on November 18, 2019 (GMT -0600)
Appleton Municipal

Weather History for KAQP - August, 2019

Change the Weather History Date:

Sunday, August 25, 2019

  Actual Average Record
Temperature  
Mean Temperature 64 °F -  
Max Temperature 68 °F 77 °F 96 °F (2013)
Min Temperature 60 °F 55 °F 44 °F (2015)
Degree Days  
Heating Degree Days 1    
Growing Degree Days 14 (Base 50)    
Moisture  
Dew Point 58 °F    
Average Humidity 82    
Maximum Humidity 94    
Minimum Humidity 72    
Precipitation  
Precipitation 0.00 in - - ()
Sea Level Pressure  
Sea Level Pressure 29.90 in    
Wind  
Wind Speed 8 mph (SE)    
Max Wind Speed 14 mph    
Max Gust Speed 20 mph    
Visibility 9 miles    
Events Rain    
Averages and records for this station are not official NWS values.
T = Trace of Precipitation, MM = Missing Value Source: NWS Daily Summary

Daily Weather History Graph

Daily Weather History Graph

Search for Another Location

Airport or City:

Astronomy

Aug. 25, 2019 Rise Set
Actual Time 6:37 AM CDT 8:14 PM CDT
Civil Twilight 6:05 AM CDT 8:45 PM CDT
Nautical Twilight 5:28 AM CDT 9:22 PM CDT
Astronomical Twilight 4:47 AM CDT 10:03 PM CDT
Moon 1:04 AM CDT (8/25) 4:46 PM CDT (8/25)
Length of Visible Light 14h 39m
Length of Day
13h 37m
Waning Crescent, 29% of the Moon is Illuminated
Aug 25
Waning Crescent
Aug 30
New
Sep 5
First Quarter
Sep 13
Full
Sep 21
Last Quarter

Hourly Weather History & Observations

Time (CDT) Temp. Dew Point Humidity Pressure Visibility Wind Dir Wind Speed Gust Speed Precip Events Conditions
12:10 AM 62.6 °F 55.4 °F 77% 30.03 in 10.0 mi Calm Calm - N/A   Overcast
12:31 AM 64.4 °F 55.4 °F 73% 30.02 in 10.0 mi Calm Calm - N/A   Overcast
12:50 AM 62.6 °F 55.4 °F 77% 30.02 in 10.0 mi SE 5.8 mph - N/A   Scattered Clouds
1:11 AM 62.6 °F 53.6 °F 72% 30.01 in 10.0 mi SE 8.1 mph - N/A   Clear
1:31 AM 62.6 °F 53.6 °F 72% 30.01 in 10.0 mi SE 6.9 mph - N/A   Clear
1:51 AM 62.6 °F 53.6 °F 72% 30.00 in 10.0 mi SE 8.1 mph - N/A   Clear
2:11 AM 60.8 °F 53.6 °F 77% 29.99 in 10.0 mi SE 6.9 mph - N/A   Clear
2:31 AM 60.8 °F 53.6 °F 77% 29.98 in 10.0 mi SSE 8.1 mph - N/A   Clear
2:51 AM 62.6 °F 53.6 °F 72% 29.98 in 10.0 mi SE 8.1 mph - N/A   Clear
3:11 AM 62.6 °F 53.6 °F 72% 29.98 in 10.0 mi SE 9.2 mph - N/A   Scattered Clouds
3:30 AM 62.6 °F 53.6 °F 72% 29.97 in 10.0 mi SE 8.1 mph - N/A   Scattered Clouds
3:50 AM 60.8 °F 53.6 °F 77% 29.97 in 10.0 mi SSE 8.1 mph - N/A   Clear
4:10 AM 60.8 °F 53.6 °F 77% 29.96 in 10.0 mi SE 10.4 mph - N/A   Clear
4:30 AM 60.8 °F 53.6 °F 77% 29.96 in 10.0 mi SSE 8.1 mph - N/A   Mostly Cloudy
4:50 AM 62.6 °F 53.6 °F 72% 29.95 in 10.0 mi SE 11.5 mph - N/A   Overcast
5:10 AM 62.6 °F 55.4 °F 77% 29.95 in 10.0 mi SSE 9.2 mph - N/A   Overcast
5:30 AM 62.6 °F 55.4 °F 77% 29.95 in 10.0 mi SE 11.5 mph 18.4 mph N/A   Overcast
5:51 AM 62.6 °F 55.4 °F 77% 29.94 in 10.0 mi SSE 11.5 mph 17.3 mph N/A   Overcast
6:10 AM 62.6 °F 55.4 °F 77% 29.94 in 10.0 mi SSE 11.5 mph 17.3 mph N/A   Overcast
6:30 AM 62.6 °F 55.4 °F 77% 29.94 in 10.0 mi SE 12.7 mph - N/A   Overcast
6:50 AM 62.6 °F 55.4 °F 77% 29.93 in 10.0 mi SE 11.5 mph 16.1 mph N/A   Overcast
7:11 AM 62.6 °F 55.4 °F 77% 29.93 in 10.0 mi SSE 11.5 mph 19.6 mph N/A   Overcast
7:31 AM 62.6 °F 55.4 °F 77% 29.94 in 10.0 mi SSE 11.5 mph - N/A   Overcast
7:51 AM 62.6 °F 57.2 °F 82% 29.93 in 7.0 mi SE 9.2 mph 18.4 mph N/A   Drizzle
8:11 AM 62.6 °F 57.2 °F 82% 29.93 in 7.0 mi SE 10.4 mph 17.3 mph N/A   Overcast
8:51 AM 62.6 °F 57.2 °F 82% 29.93 in 10.0 mi SE 9.2 mph 17.3 mph N/A   Overcast
9:11 AM 62.6 °F 57.2 °F 82% 29.92 in 10.0 mi SSE 6.9 mph - N/A   Overcast
9:30 AM 62.6 °F 57.2 °F 82% 29.93 in 10.0 mi SE 9.2 mph - N/A   Overcast
9:51 AM 62.6 °F 57.2 °F 82% 29.92 in 5.0 mi SE 11.5 mph - N/A   Haze
10:10 AM 62.6 °F 57.2 °F 82% 29.93 in 10.0 mi SE 11.5 mph - N/A   Overcast
10:31 AM 62.6 °F 57.2 °F 82% 29.93 in 3.0 mi SSE 10.4 mph 16.1 mph N/A Rain Rain
10:51 AM 62.6 °F 59.0 °F 88% 29.93 in 2.0 mi SSE 10.4 mph 16.1 mph N/A   Heavy Drizzle
11:10 AM 62.6 °F 59.0 °F 88% 29.93 in 2.5 mi SE 9.2 mph - N/A   Drizzle
11:31 AM 62.6 °F 59.0 °F 88% 29.92 in 4.0 mi SE 9.2 mph - N/A   Light Drizzle
11:50 AM 62.6 °F 59.0 °F 88% 29.92 in 5.0 mi SE 11.5 mph - N/A Rain Light Rain
12:11 PM 62.6 °F 59.0 °F 88% 29.92 in 3.0 mi SSE 8.1 mph - N/A   Drizzle
12:31 PM 62.6 °F 60.8 °F 94% 29.92 in 2.0 mi SE 9.2 mph - N/A Rain Rain
12:51 PM 62.6 °F 60.8 °F 94% 29.92 in 5.0 mi SE 9.2 mph - N/A Rain Rain
1:10 PM 64.4 °F 60.8 °F 88% 29.90 in 10.0 mi SE 11.5 mph 16.1 mph N/A   Mostly Cloudy
1:31 PM 64.4 °F 60.8 °F 88% 29.90 in 10.0 mi SE 11.5 mph - N/A   Mostly Cloudy
1:50 PM 64.4 °F 60.8 °F 88% 29.90 in 10.0 mi SE 11.5 mph 19.6 mph N/A   Overcast
2:10 PM 64.4 °F 60.8 °F 88% 29.90 in 10.0 mi SE 11.5 mph - N/A   Overcast
2:31 PM 64.4 °F 60.8 °F 88% 29.90 in 10.0 mi SSE 12.7 mph 17.3 mph N/A   Light Drizzle
2:50 PM 66.2 °F 60.8 °F 83% 29.89 in 10.0 mi SE 13.8 mph 19.6 mph N/A   Mostly Cloudy
3:10 PM 64.4 °F 60.8 °F 88% 29.88 in 10.0 mi SE 12.7 mph - N/A   Light Drizzle
3:31 PM 64.4 °F 60.8 °F 88% 29.88 in 10.0 mi SE 10.4 mph - N/A   Light Drizzle
3:50 PM 64.4 °F 60.8 °F 88% 29.88 in 7.0 mi SSE 8.1 mph - N/A Rain Rain
4:11 PM 64.4 °F 60.8 °F 88% 29.87 in 7.0 mi SE 8.1 mph - N/A   Drizzle
4:31 PM 66.2 °F 62.6 °F 88% 29.86 in 10.0 mi SSE 12.7 mph 16.1 mph N/A   Light Drizzle
4:50 PM 66.2 °F 62.6 °F 88% 29.85 in 10.0 mi SSE 11.5 mph 17.3 mph N/A   Mostly Cloudy
5:10 PM 66.2 °F 62.6 °F 88% 29.85 in 10.0 mi SE 10.4 mph - N/A   Overcast
5:31 PM 66.2 °F 60.8 °F 83% 29.84 in 10.0 mi SE 10.4 mph 18.4 mph N/A   Overcast
5:50 PM 66.2 °F 60.8 °F 83% 29.84 in 10.0 mi SE 11.5 mph - N/A   Overcast
6:11 PM 66.2 °F 60.8 °F 83% 29.84 in 10.0 mi SSE 8.1 mph - N/A   Overcast
6:31 PM 66.2 °F 60.8 °F 83% 29.84 in 10.0 mi SSE 5.8 mph - N/A   Overcast
6:51 PM 66.2 °F 60.8 °F 83% 29.84 in 7.0 mi SSE 6.9 mph - N/A   Overcast
7:10 PM 66.2 °F 60.8 °F 83% 29.83 in 10.0 mi SSE 6.9 mph - N/A   Overcast
7:30 PM 66.2 °F 60.8 °F 83% 29.82 in 10.0 mi SE 8.1 mph - N/A   Overcast
7:50 PM 66.2 °F 60.8 °F 83% 29.82 in 10.0 mi SE 6.9 mph - N/A   Overcast
8:11 PM 66.2 °F 60.8 °F 83% 29.81 in 10.0 mi SE 6.9 mph - N/A   Overcast
8:31 PM 68.0 °F 60.8 °F 78% 29.82 in 10.0 mi SSE 5.8 mph - N/A   Overcast
8:50 PM 66.2 °F 60.8 °F 83% 29.82 in 10.0 mi SE 5.8 mph - N/A   Overcast
9:10 PM 66.2 °F 60.8 °F 83% 29.82 in 10.0 mi SE 6.9 mph - N/A   Overcast
9:31 PM 66.2 °F 60.8 °F 83% 29.82 in 10.0 mi SE 9.2 mph - N/A   Overcast
9:50 PM 66.2 °F 60.8 °F 83% 29.82 in 10.0 mi SE 10.4 mph - N/A   Overcast
10:11 PM 66.2 °F 60.8 °F 83% 29.82 in 10.0 mi SE 10.4 mph - N/A   Overcast
10:31 PM 66.2 °F 60.8 °F 83% 29.82 in 10.0 mi SSE 5.8 mph - N/A   Overcast
10:51 PM 66.2 °F 60.8 °F 83% 29.82 in 10.0 mi SE 5.8 mph - N/A   Overcast
11:11 PM 66.2 °F 60.8 °F 83% 29.82 in 10.0 mi SSE 6.9 mph - N/A   Overcast
11:31 PM 66.2 °F 60.8 °F 83% 29.82 in 10.0 mi SSE 6.9 mph - N/A   Overcast
11:51 PM 66.2 °F 60.8 °F 83% 29.82 in 10.0 mi SSE 5.8 mph - N/A   Overcast